Home   Weather   Odessa   Past weeks

Flag for USA Past Weather in Odessa, Texas, USA — Yesterday and Last 2 Weeks

Now
42 °F

Sunny.


Feels Like: 38 °F
Forecast: 38 / 61 °F
Wind: 7 mph from Southwest

Location: Odessa-Schlemeyer Field

Current Time: Jan 16, 2017 at 9:26:59 am

Latest Report: Jan 16, 2017 at 8:53 am


Visibility: 10 mi

Pressure: 29.96 "Hg (26.89 "Hg at 882m altitude)

Humidity: 79%

Dew Point: 36 °F

Location of OdessaLocation

Past Weather in Odessa — Graph

°F

Odessa Temperature Yesterday

Maximum temperature yesterday: 47 °F (at 1:09 pm)
Minimum temperature yesterday: 35 °F (at 1:53 am)
Average temperature yesterday: 42 °F

High & Low Weather Summary for the Past Weeks

 TemperatureHumidityPressure
High82 °F (Jan 11, 2:53 pm)97% (Jan 15, 2:20 pm)30.69 "Hg (Jan 15, 2:20 pm)
Low13 °F (Jan 7, 4:53 am)9% (Jan 11, 2:53 pm)29.64 "Hg (Jan 1, 6:53 pm)
Average44 °F59%30.08 "Hg
* Reported Jan 1 7:53 am — Jan 16 7:53 am, Odessa, Weather by CustomWeather, © 2017

Note: Actual official high and low records may vary slightly from our data, if they occured in-between our weather recording intervals... More about our weather records

Advertising

Odessa Weather History for the Previous 24 Hours

Scroll right to see more
 ConditionsComfort  
Time TempWeatherWind HumidityBarometerVisibility
7:53 am
Mon, Jan 16
38 °FSunny.7 mph86%29.94 "Hg10 mi
6:53 am38 °FClear.6 mph86%29.93 "Hg10 mi
5:53 am38 °FClear.5 mph86%29.90 "Hg10 mi
4:53 am38 °FClear.7 mph86%29.89 "Hg10 mi
3:53 am39 °FClear.3 mph82%29.88 "Hg10 mi
2:53 am41 °FClear.9 mph80%29.89 "Hg10 mi
1:53 am41 °FClear.7 mph76%29.89 "Hg10 mi
12:53 am41 °FClear.9 mph80%29.89 "Hg10 mi
11:53 pm
Sun, Jan 15
41 °FClear.8 mph80%29.90 "Hg10 mi
10:53 pm44 °FClear.10 mph73%29.90 "Hg10 mi
9:53 pm43 °FClear.9 mph82%29.91 "Hg10 mi
8:53 pm45 °FClear.8 mph76%29.89 "Hg10 mi
7:53 pm45 °FPartly cloudy.7 mph86%29.89 "Hg10 mi
6:53 pm44 °FClear.No wind89%29.87 "Hg10 mi
5:53 pm47 °FPartly sunny.No wind90%29.84 "Hg10 mi
4:53 pm47 °FPartly sunny.8 mph90%29.83 "Hg10 mi
4:17 pm46 °FBroken clouds.5 mph93%29.84 "Hg10 mi
3:53 pm46 °FRain. Mostly cloudy.13 mph89%29.79 "Hg7 mi
3:26 pm46 °FLight rain. Fog.8 mph89%29.83 "Hg6 mi
2:53 pm46 °FMostly cloudy.12 mph96%29.81 "Hg10 mi
2:20 pm47 °FMostly cloudy.6 mph97%29.87 "Hg10 mi
1:32 pm47 °FFog.N/A90%29.86 "Hg2 mi
1:09 pm47 °FThunderstorms. Fog.9 mph86%29.84 "Hg3 mi
12:33 pm46 °FThundershowers. Fog.7 mph89%29.88 "Hg3 mi
11:41 am44 °FThunderstorms. Fog.21 mph93%30.00 "Hg1 mi
10:53 am43 °FThundershowers. Fog.9 mph93%29.93 "Hg0 mi
10:19 am41 °FFog.13 mph93%29.96 "Hg1 mi
9:38 am39 °FFog.17 mph93%29.98 "Hg1 mi
Weather by CustomWeather, © 2017

See weather overviewHow to use our weather pages